Wind_Speed
43 43 45 46 44 44 43 45 46 48 51 48 49 51 50 53 55 55 59 62 64 66 68 70 71 68 68 67 67 66 62 60 60 57 54 49 51 51
48 46 48 48 48 48 52 50 50 50 50 50 53 53 51 54 57 59 59 62 64 67 68 69 70 71 69 69 67 68 66 66 67 67 67 61 59 60
50 51 50 48 48 48 48 46 46 47 48 49 51 53 53 50 51 56 58 61 63 66 69 70 72 73 72 71 69 67 69 69 69 71 70 70 68 68
46 46 45 43 42 43 43 43 42 43 43 44 46 48 48 47 45 47 54 57 60 63 65 67 70 70 69 69 68 68 69 70 72 73 75 75 75 75
45 43 39 37 37 37 36 36 37 37 40 38 39 39 41 44 43 42 45 52 55 58 60 62 63 63 64 64 64 65 67 69 71 74 76 78 80 79
40 39 38 36 35 34 34 34 34 35 34 33 33 34 35 36 36 39 41 42 48 51 55 59 60 61 61 61 59 60 65 69 71 72 73 75 78 80
34 34 34 34 34 35 35 34 34 31 30 30 30 30 28 26 28 29 33 36 41 46 51 53 54 57 57 56 57 58 58 59 68 73 75 74 75 77
33 33 34 35 37 38 37 35 33 31 29 30 29 26 24 22 22 23 23 25 31 37 40 46 54 57 55 54 58 59 59 59 60 64 71 75 76 75
32 32 33 34 34 35 36 36 34 32 31 30 30 26 22 20 17 15 18 21 22 23 33 42 46 55 61 60 56 57 58 59 59 59 65 68 68 67
26 25 26 27 28 29 32 34 35 34 31 30 29 24 20 18 18 14 9 6 11 17 19 24 34 46 53 57 59 59 59 60 60 59 60 64 66 68
24 25 26 27 28 27 27 26 27 28 29 26 27 23 18 18 17 15 14 11 9 8 8 13 18 25 35 47 56 59 59 58 58 59 60 62 63 64
21 23 25 24 23 23 23 24 17 19 21 24 26 20 19 20 19 16 15 12 11 12 10 10 12 12 17 18 27 40 47 52 55 57 58 59 61 62
19 20 21 17 16 15 13 12 15 18 22 24 23 18 20 21 20 20 17 15 15 16 16 15 15 14 15 15 13 15 23 32 41 48 52 56 59 61
19 18 20 15 12 13 11 10 10 12 16 23 24 19 21 23 22 22 20 21 22 22 22 22 21 22 23 22 19 20 19 19 23 31 39 45 51 56
16 16 17 16 11 11 10 10 9 9 11 13 15 16 18 20 19 21 23 24 25 27 28 29 29 28 28 28 28 28 26 27 27 27 28 32 38 45
14 14 15 17 17 16 13 10 9 10 11 13 15 17 19 21 22 24 26 27 29 30 31 33 33 33 33 34 34 34 35 36 36 36 36 36 37 38
19 18 18 17 17 17 17 17 17 18 18 19 21 23 26 28 30 32 33 35 35 35 36 36 37 38 40 40 40 41 43 43 44 45 46 46 47 47
23 22 21 21 20 20 21 22 23 24 26 27 28 29 31 33 34 35 36 38 40 41 43 45 46 46 45 45 47 48 49 50 51 52 53 54 56 56
27 27 27 27 27 27 27 28 29 30 32 33 35 36 37 38 39 40 41 42 44 45 46 47 49 51 53 55 56 56 57 57 58 60 62 63 63 65
30 30 30 31 32 32 32 33 33 34 35 36 37 38 39 40 42 44 45 46 47 48 50 51 52 54 56 58 58 59 59 61 62 63 63 65 68 70
32 33 32 32 32 32 32 33 34 34 35 37 39 40 42 43 45 46 47 48 48 49 50 51 51 52 54 55 56 58 60 61 62 63 65 67 69 71
31 30 30 31 31 31 32 33 35 36 38 40 42 43 44 45 46 46 47 47 47 48 49 49 50 52 54 56 58 60 62 65 67 69 69 70 70 71
29 29 30 30 31 32 34 35 37 38 39 41 43 44 45 45 45 45 45 45 45 46 47 50 52 54 57 59 60 61 63 64 66 67 69 69 69 69
Wind_Direction
277 276 271 274 274 267 272 266 268 268 267 269 269 270 272 265 256 251 248 245 246 246 246 245 246 248 248 248 248 249 248 243 239 239 241 252 246 247
284 282 275 274 273 273 271 269 273 275 274 273 274 271 267 265 260 252 250 248 246 246 246 247 246 247 248 249 248 248 247 246 246 244 243 241 245 247
279 277 278 278 277 277 274 273 275 274 269 271 270 267 263 261 257 254 250 249 249 247 246 246 247 247 248 248 248 246 247 247 245 245 245 243 242 244
282 282 281 280 278 277 278 277 276 274 273 270 266 262 259 263 258 255 252 250 249 248 248 247 247 247 247 247 246 245 244 244 246 245 245 245 243 244
286 285 282 279 278 278 277 276 275 273 269 266 265 262 263 265 266 265 254 250 248 248 247 246 246 247 247 246 245 244 243 243 244 245 245 246 246 245
284 283 281 278 276 276 274 276 275 272 267 262 259 259 258 259 264 269 266 256 250 250 248 246 246 247 248 248 249 247 244 242 242 244 245 245 246 247
288 285 281 278 275 278 278 276 277 274 266 260 256 256 256 264 267 258 260 262 256 251 249 250 248 246 246 247 248 248 246 244 241 241 242 244 244 246
288 286 283 280 279 279 276 275 275 276 266 257 256 258 259 267 275 277 271 267 257 251 247 245 247 245 246 248 248 248 248 245 243 241 241 241 244 245
289 287 284 281 278 276 274 272 272 272 264 260 259 260 264 265 272 284 285 280 270 261 251 247 244 243 245 246 246 245 245 246 246 245 241 240 242 244
292 293 290 290 288 284 278 271 271 264 260 256 262 261 267 270 268 268 272 293 296 283 272 262 252 247 244 242 243 245 245 244 243 243 242 239 242 244
293 295 293 289 284 284 278 267 252 248 256 249 258 258 263 258 261 268 280 294 301 320 339 295 281 269 254 249 245 246 246 245 243 241 241 243 244 243
299 298 300 300 295 288 278 265 245 234 252 246 254 252 256 256 260 266 265 271 279 291 304 320 337 316 261 254 253 250 249 248 245 242 243 243 244 245
296 308 310 298 295 284 273 260 249 244 252 243 246 258 254 255 263 272 270 274 280 288 294 296 301 303 307 310 305 264 251 250 249 249 249 248 247 247
301 308 306 308 319 317 303 279 259 257 253 233 243 249 247 253 262 272 277 277 279 284 286 289 289 289 290 290 285 283 285 272 257 250 249 246 246 247
300 310 313 302 306 303 297 290 281 271 261 258 260 254 251 256 264 270 271 277 282 288 290 290 290 289 286 283 282 281 275 271 272 268 262 256 252 249
290 293 297 301 298 292 283 274 272 275 275 271 268 264 262 265 267 270 275 278 280 281 281 281 281 281 280 279 278 278 277 276 273 270 269 266 263 261
277 285 287 289 292 293 297 299 297 293 289 284 281 280 280 279 279 278 278 278 278 277 277 277 277 276 277 277 276 275 274 274 274 273 271 269 270 268
275 278 281 284 286 287 288 288 288 287 285 284 283 283 283 283 282 282 282 283 283 284 284 283 282 280 277 277 277 277 276 275 274 273 273 272 270 268
277 277 277 279 281 283 283 283 284 284 284 284 283 283 284 285 286 286 286 286 286 286 285 284 284 284 284 282 280 279 279 278 278 278 276 274 273 272
278 277 278 278 279 280 282 283 284 285 287 288 288 288 287 287 287 287 287 286 287 286 286 285 284 284 285 284 282 281 279 279 279 278 277 277 276 275
279 280 279 278 279 281 282 284 285 286 288 290 290 290 290 290 290 290 289 289 288 287 286 285 283 283 282 281 281 281 280 278 276 276 276 277 277 276
279 278 278 279 281 284 286 288 289 291 292 292 292 292 291 291 291 290 288 287 286 285 284 284 285 285 285 285 285 285 285 284 283 281 279 277 274 273
278 277 279 281 283 286 290 291 291 292 292 292 293 292 292 291 290 289 289 289 288 288 288 288 288 288 288 288 288 287 287 286 285 284 283 281 278 276
Height
5608 5606 5604 5602 5601 5601 5601 5599 5598 5598 5597 5598 5598 5599 5597 5599 5602 5603 5606 5609 5614 5619 5623 5629 5634 5637 5642 5647 5652 5657 5662 5669 5675 5679 5682 5687 5692 5697
5595 5593 5591 5588 5587 5585 5586 5584 5583 5582 5580 5580 5580 5581 5582 5583 5584 5586 5588 5591 5595 5600 5605 5611 5617 5620 5624 5630 5637 5643 5648 5653 5657 5662 5668 5674 5680 5685
5579 5577 5575 5573 5572 5572 5571 5570 5570 5569 5566 5564 5565 5566 5567 5569 5568 5569 5570 5573 5578 5581 5587 5593 5598 5603 5607 5613 5617 5624 5630 5636 5641 5646 5651 5658 5664 5669
5565 5563 5561 5559 5558 5557 5557 5555 5555 5555 5553 5551 5552 5554 5554 5554 5555 5555 5554 5557 5560 5563 5568 5575 5579 5585 5590 5596 5601 5606 5612 5618 5623 5629 5633 5641 5645 5651
5552 5550 5547 5546 5545 5545 5544 5543 5543 5542 5542 5541 5540 5542 5542 5541 5540 5539 5540 5542 5545 5549 5553 5558 5563 5568 5572 5577 5583 5589 5595 5602 5608 5611 5617 5621 5627 5633
5540 5538 5536 5534 5534 5534 5533 5532 5531 5531 5530 5530 5531 5531 5532 5531 5529 5527 5526 5528 5531 5533 5537 5542 5546 5550 5556 5561 5567 5572 5577 5583 5588 5593 5599 5604 5609 5614
5529 5527 5525 5524 5524 5523 5522 5522 5521 5520 5520 5521 5522 5522 5522 5521 5520 5519 5517 5517 5518 5521 5524 5527 5532 5535 5539 5544 5548 5553 5558 5564 5569 5574 5580 5585 5591 5595
5520 5518 5516 5515 5513 5512 5511 5510 5510 5511 5511 5512 5513 5514 5513 5512 5511 5509 5508 5507 5507 5509 5510 5514 5517 5520 5524 5528 5531 5536 5540 5546 5551 5556 5561 5567 5572 5577
5511 5509 5506 5504 5502 5501 5499 5499 5500 5501 5502 5504 5505 5506 5505 5504 5504 5502 5499 5498 5497 5497 5498 5500 5503 5506 5510 5513 5516 5520 5525 5529 5534 5539 5544 5549 5555 5559
5503 5501 5498 5495 5492 5490 5488 5488 5489 5492 5494 5496 5497 5498 5498 5497 5497 5496 5495 5492 5490 5489 5488 5488 5489 5491 5493 5496 5501 5504 5508 5513 5518 5523 5528 5533 5538 5542
5497 5494 5491 5488 5484 5482 5480 5479 5480 5483 5486 5488 5490 5491 5491 5492 5492 5491 5490 5488 5487 5486 5484 5481 5479 5479 5480 5481 5484 5488 5492 5497 5502 5507 5512 5517 5522 5527
5491 5488 5484 5480 5477 5475 5474 5474 5475 5477 5479 5481 5483 5484 5484 5486 5486 5486 5485 5484 5483 5482 5480 5479 5477 5475 5474 5473 5473 5475 5478 5482 5487 5492 5496 5501 5506 5510
5487 5483 5479 5476 5473 5471 5470 5470 5471 5472 5474 5475 5476 5477 5478 5479 5480 5480 5479 5478 5477 5477 5475 5474 5473 5472 5471 5470 5468 5468 5469 5470 5473 5477 5480 5484 5488 5492
5482 5478 5476 5473 5470 5468 5467 5466 5466 5467 5468 5469 5470 5472 5473 5473 5473 5473 5472 5472 5471 5470 5469 5469 5468 5467 5466 5465 5464 5463 5463 5463 5463 5465 5467 5469 5472 5475
5477 5474 5472 5470 5468 5467 5465 5464 5464 5464 5464 5465 5465 5467 5467 5468 5467 5467 5466 5465 5464 5463 5462 5461 5460 5459 5458 5457 5457 5456 5456 5456 5456 5456 5456 5456 5457 5459
5472 5470 5469 5467 5466 5465 5463 5462 5461 5461 5461 5461 5462 5462 5462 5461 5461 5460 5459 5458 5457 5456 5455 5453 5452 5451 5450 5449 5448 5447 5446 5445 5445 5446 5446 5446 5445 5446
5466 5464 5463 5462 5461 5460 5459 5458 5457 5456 5456 5455 5454 5454 5453 5452 5451 5450 5449 5448 5447 5446 5445 5443 5442 5440 5439 5437 5437 5436 5435 5434 5433 5432 5432 5432 5431 5431
5460 5459 5457 5456 5455 5454 5453 5452 5451 5450 5449 5448 5446 5445 5444 5442 5440 5439 5437 5435 5433 5431 5429 5427 5426 5425 5425 5424 5422 5421 5420 5419 5418 5417 5416 5414 5414 5415
5452 5451 5450 5449 5448 5446 5445 5444 5442 5441 5439 5437 5436 5434 5432 5430 5428 5426 5424 5422 5420 5417 5415 5414 5411 5408 5406 5405 5405 5403 5401 5400 5399 5397 5396 5395 5394 5393
5443 5442 5441 5440 5439 5437 5435 5434 5432 5430 5428 5426 5424 5422 5419 5417 5415 5413 5410 5407 5405 5402 5400 5397 5395 5392 5389 5387 5385 5384 5382 5380 5377 5375 5375 5373 5370 5369
5433 5432 5431 5430 5428 5427 5425 5423 5421 5419 5417 5414 5412 5409 5407 5404 5401 5398 5395 5393 5390 5387 5384 5381 5378 5375 5372 5369 5366 5363 5360 5359 5358 5357 5354 5350 5348 5345
5423 5421 5420 5419 5418 5416 5414 5412 5410 5408 5405 5403 5400 5397 5394 5390 5387 5384 5381 5378 5374 5371 5368 5365 5361 5358 5355 5351 5348 5344 5340 5336 5332 5330 5330 5328 5327 5325
5413 5412 5410 5409 5407 5406 5403 5401 5399 5396 5393 5390 5387 5383 5380 5376 5372 5369 5365 5362 5359 5355 5352 5348 5344 5340 5336 5333 5328 5324 5319 5315 5310 5306 5302 5300 5298 5296